Location: 22
(39.7117°N, 89.5929°W)
Time: 17:23:57
(UTC-05:00)

A-11 Canister half - Pass Details

Date: 05 February 2023
Orbit: 1526 x 1682 km, 47.3° (Epoch: 22 March)

Event Time Altitude Azimuth Distance (km) Brightness Sun altitude
Exits shadow 04:05:59 35° 185° (S) 2,287 9.7 -34.3°
Maximum altitude 04:09:28 49° 137° (SE) 1,903 9.5 -33.6°
Drops below altitude 10° 04:18:16 10° 66° (ENE) 3,709 11.8 -31.9°
Sets 04:21:27 0° 61° (ENE) 4,705 12.5 -31.3°
